Voltar ao catálogo

COSMOS 1375 DEB

AtivoLEO
NORAD 17798·DEBRIS·🇷🇺 Russia

Lançado Jun 6, 1982 de Plesetsk Cosmodrome

Loading…

Próximas Passagens (próximas 24 horas)

TLE

AtualizadoSource: Space-Track

Época: Sep 14, 2026, 13:46 UTC

1 17798U 82055AQ  26257.57368454 -.00000046  00000-0  41434-4 0  9997
2 17798  65.8341  92.2276 0069649 148.0103 246.0457 13.59315589 29086

Acompanhe COSMOS 1375 DEB em tempo real com AllMySat

Download on the App Store